[[{"header":{"parameterUnit":"m.s-1","parameterCategory":1,"la1":30.2991,"la2":30.254,"lo1":-89.0895,"lo2":-89.0444,"dy":0.0017,"dx":0.0017,"nx":28,"ny":28,"refTime":"2024-04-14T03:00:00:Z","depth":0,"parameterNumber":2,"parameterNumberName":"U-component_of_WINDS"},"data":[0,0,0,0,0,0,0,0,0,0,0,0,0,0,0,0,0,0,0,0,0,0,0,0,0,0,0,0,0,0,0,0,0,0,0,0,0,0,0,0,0,0,0,0,0,0,0,0,0,0,0,0,0,0,0,0,0,0,-3.1042,-3.1044,0,-3.1163,-3.1165,-3.1166,-3.1151,-3.1149,-3.1147,-3.1145,-3.1269,-3.1274,-3.1279,0,0,0,0,0,0,0,0,0,0,0,0,0,-3.08,-3.0804,-3.1042,-3.1044,-3.1045,-3.1163,-3.1165,-3.1166,-3.1151,-3.1149,-3.1147,-3.1144,-3.1267,-3.1273,-3.128,0,0,0,0,0,0,0,0,0,0,0,0,0,-3.0911,-3.0806,-3.1042,-3.1052,-3.1054,-3.1163,-3.1165,-3.1167,-3.1152,-3.1149,-3.1146,-3.1143,-3.1265,-3.1273,-3.128,-3.1387,0,0,-3.1304,-3.1307,0,0,0,0,0,0,0,0,-3.0905,-3.092,-3.1049,-3.1052,-3.1054,-3.1139,-3.1125,-3.124,-3.1153,-3.1115,-3.1145,-3.1142,-3.1228,-3.1239,-3.1268,-3.1392,-3.1398,-3.1305,-3.1309,-3.1312,-3.1315,0,0,0,0,0,0,0,-3.0897,-3.0915,-3.109,-3.1051,-3.1054,-3.1051,-3.1064,-3.1146,-3.1186,-3.1118,-3.1117,-3.1132,-3.1229,-3.126,-3.1271,-3.1399,-3.1304,-3.1311,-3.1316,-3.1319,-3.1619,-3.1622,0,0,0,0,0,0,-3.0887,-3.0909,-3.1086,-3.1094,-3.0971,-3.1058,-3.1072,-3.1115,-3.1186,-3.1194,-3.1134,-3.1131,-3.1249,-3.1262,-3.1275,-3.1405,-3.1312,-3.132,-3.1324,-3.1615,-3.1619,-3.1623,0,0,0,0,0,0,-3.0882,-3.0903,-3.1081,-3.1001,-3.1024,-3.1065,-3.1113,-3.1119,-3.115,-3.1198,-3.1205,-3.1159,-3.1247,-3.1264,-3.1359,-3.1409,-3.1323,-3.133,-3.1611,-3.1617,-3.1621,-3.1664,0,0,0,0,0,0,-3.0875,-3.0901,-3.0941,-3.1002,-3.1028,-3.1163,-3.1116,-3.1123,-3.1163,-3.116,-3.1223,-3.123,-3.1246,-3.1348,-3.1367,-3.1418,-3.1336,-3.1607,-3.1614,-3.162,-3.1658,-3.167,-3.168,0,0,0,0,0,-3.0866,-3.0948,-3.0944,-3.0965,-3.1079,-3.1166,-3.1181,-3.1197,-3.1167,-3.1209,-3.124,-3.1228,-3.14,-3.1358,-3.1379,-3.1433,-3.1604,-3.1612,-3.1619,-3.1654,-3.1668,-3.168,0,0,0,0,0,0,-3.0892,-3.0956,-3.0952,-3.1056,-3.1106,-3.1163,-3.1216,-3.1211,-3.1271,-3.1265,-3.1283,-3.1297,-3.1393,-3.1423,-3.1374,-3.154,-3.1498,-3.151,-3.1517,-3.1531,-3.1541,-3.1532,-3.1342,0,0,0,0,0,-3.091,-3.0975,-3.1028,-3.1115,-3.114,-3.1174,-3.1212,-3.1221,-3.1273,-3.1294,-3.1332,-3.1383,-3.1449,-3.1492,-3.1555,-3.1663,-3.1677,-3.1711,-3.1721,-3.173,-3.174,-3.18,-3.1816,-3.1648,-3.1648,-3.1648,0,0,-3.0947,-3.099,-3.103,-3.1121,-3.116,-3.1228,-3.1191,-3.1264,-3.1314,-3.1305,-3.1397,-3.1427,-3.1486,-3.1588,-3.1635,-3.1615,-3.179,-3.174,-3.1746,-3.1752,-3.181,-3.1826,-3.184,-3.1653,-3.1652,-3.1651,0,0,-3.1049,-3.1089,-3.1166,-3.1206,-3.1267,-3.129,-3.1308,-3.1367,-3.1387,-3.148,-3.1475,-3.1535,-3.1648,-3.169,-3.1726,-3.1847,-3.1839,-3.1867,-3.1923,-3.1982,-3.1995,-3.2007,-3.205,-3.2065,-3.1877,-3.1877,-3.1878,0,-3.1088,-3.1189,-3.1206,-3.128,-3.132,-3.1316,-3.1394,-3.1433,-3.1511,-3.1539,-3.1517,-3.1659,-3.1698,-3.1811,-3.184,-3.187,-3.1892,-3.186,-3.1992,-3.2004,-3.2015,-3.2057,-3.2073,-3.188,-3.188,-3.188,-3.188,0,-3.1234,-3.1304,-3.1359,-3.1435,-3.1482,-3.1558,-3.1587,-3.1632,-3.1638,-3.1663,-3.1758,-3.1805,-3.1878,-3.1906,-3.1911,-3.202,-3.2006,-3.1987,-3.1946,-3.2034,-3.2073,-3.2089,-3.1885,-3.1884,-3.1883,-3.1882,0,0,-3.1354,-3.144,-3.146,-3.1495,-3.1562,-3.1617,-3.1694,-3.1766,-3.1805,-3.1859,-3.1924,-3.2021,-3.2004,-3.2045,-3.2056,-3.2108,-3.2201,-3.2083,-3.2084,-3.2103,-3.2325,-3.2338,-3.2356,-3.2197,-3.22,-3.2202,-3.232,0,-3.1463,-3.1597,-3.1615,-3.1735,-3.1801,-3.1799,-3.1865,-3.1914,-3.194,-3.2,-3.2029,-3.2097,-3.207,-3.2095,-3.2147,-3.2179,-3.2246,-3.2171,-3.2257,-3.226,-3.2242,-3.2377,-3.2391,-3.2499,-3.2335,-3.2338,-3.234,0,-3.1607,-3.1667,-3.1793,-3.1853,-3.1881,-3.1941,-3.2009,-3.2066,-3.2122,-3.2138,-3.2185,-3.2189,-3.2269,-3.2225,-3.2336,-3.2284,-3.2321,-3.2342,-3.2347,-3.2355,-3.2305,-3.2388,-3.2534,-3.255,-3.2364,-3.2362,-3.236,0,-3.1682,-3.1794,-3.1884,-3.1914,-3.1986,-3.2029,-3.2061,-3.2114,-3.2157,-3.2216,-3.2244,-3.2313,-3.235,-3.2403,-3.2426,-3.2392,-3.2536,-3.2493,-3.2551,-3.255,-3.258,-3.2578,-3.2733,-3.2605,-3.2605,-3.2604,-3.2604,0,-3.1801,-3.1879,-3.1919,-3.1974,-3.2061,-3.2082,-3.2168,-3.2198,-3.2246,-3.2308,-3.2311,-3.2369,-3.2396,-3.2459,-3.2477,-3.2566,-3.2583,-3.2598,-3.2602,-3.2598,-3.2596,-3.2621,-3.2614,-3.2609,-3.2608,-3.2607,-3.2606,0,-3.1899,-3.1929,-3.2027,-3.2089,-3.2106,-3.2167,-3.222,-3.2274,-3.23,-3.2378,-3.2398,-3.2439,-3.2513,-3.2542,-3.2632,-3.2644,-3.2747,-3.2745,-3.2728,-3.2729,-3.2785,-3.2779,-3.2962,-3.2988,-3.2842,-3.2844,-3.2845,0,-3.1973,-3.2033,-3.2101,-3.2142,-3.2176,-3.2243,-3.2287,-3.231,-3.2356,-3.2426,-3.2472,-3.2545,-3.2606,-3.2724,-3.2762,-3.2831,-3.2831,-3.289,-3.2841,-3.2835,-3.2832,-3.2828,-3.2834,-3.2899,-3.29,-3.2902,-3.2903,0,-3.2101,-3.2114,-3.2176,-3.2245,-3.2298,-3.2353,-3.2407,-3.2441,-3.2473,-3.2524,-3.26,-3.2646,-3.2739,-3.2813,-3.2884,-3.2918,-3.2916,-3.2918,-3.2935,-3.2931,-3.2918,-3.2926,-3.2753,-3.2913,-3.2912,-3.2912,-3.2911,-3.2911,-3.219,-3.2243,-3.2299,-3.237,-3.2413,-3.2463,-3.2518,-3.2551,-3.2615,-3.2692,-3.2702,-3.2784,-3.284,-3.2936,-3.2973,-3.3038,-3.3022,-3.3046,-3.3053,-3.3058,-3.3062,-3.2909,-3.3051,-3.3051,-3.305,-3.305,-3.305,0,-3.2318,-3.2354,-3.2419,-3.2495,-3.255,-3.2545,-3.2604,-3.2651,-3.2723,-3.2776,-3.2835,-3.2923,-3.2995,-3.3039,-3.3112,-3.3155,-3.3156,-3.3173,-3.317,-3.3178,-3.3072,-3.305,-3.3171,-3.3171,-3.3171,-3.3171,-3.3171,-3.3171,-3.2391,-3.2481,-3.25,-3.2612,-3.2649,-3.2728,-3.2763,-3.281,-3.2853,-3.2951,-3.301,-3.3039,-3.3089,-3.3165,-3.3231,-3.3242,-3.3269,-3.3287,-3.3297,-3.3198,-3.3185,-3.3173,-3.3152,-3.3293,-3.3293,-3.3398,-3.3399,-3.3399]},{"header":{"parameterUnit":"m.s-1","parameterCategory":1,"la1":30.2991,"la2":30.254,"lo1":-89.0895,"lo2":-89.0444,"dy":0.0017,"dx":0.0017,"nx":28,"ny":28,"refTime":"2024-04-14T03:00:00:Z","depth":0,"parameterNumber":3,"parameterNumberName":"V-component_of_WINDS"},"data":[0,0,0,0,0,0,0,0,0,0,0,0,0,0,0,0,0,0,0,0,0,0,0,0,0,0,0,0,0,0,0,0,0,0,0,0,0,0,0,0,0,0,0,0,0,0,0,0,0,0,0,0,0,0,0,0,0,0,2.7186,2.7186,0,2.7121,2.712,2.7119,2.7106,2.7106,2.7107,2.7107,2.7037,2.7035,2.7033,0,0,0,0,0,0,0,0,0,0,0,0,0,2.7297,2.7295,2.7186,2.7186,2.7185,2.7121,2.712,2.7119,2.7106,2.7106,2.7107,2.7107,2.7038,2.7035,2.7032,0,0,0,0,0,0,0,0,0,0,0,0,0,2.7242,2.7294,2.7187,2.717,2.7168,2.7121,2.712,2.7119,2.7106,2.7106,2.7107,2.7108,2.7039,2.7035,2.7032,2.6995,0,0,2.7021,2.702,0,0,0,0,0,0,0,0,2.7245,2.7238,2.7174,2.7171,2.7169,2.7122,2.7133,2.7077,2.7105,2.7129,2.7107,2.7108,2.7065,2.7059,2.7045,2.6992,2.6989,2.7021,2.7019,2.7017,2.7016,0,0,0,0,0,0,0,2.7249,2.7241,2.716,2.7173,2.717,2.7165,2.7158,2.7123,2.7093,2.7127,2.7126,2.7119,2.7064,2.7049,2.7043,2.6988,2.7021,2.7018,2.7016,2.7015,2.69,2.69,0,0,0,0,0,0,2.7256,2.7244,2.7162,2.7158,2.721,2.7163,2.7155,2.7136,2.7094,2.7088,2.7118,2.7118,2.7054,2.7047,2.7041,2.6994,2.7017,2.7014,2.7012,2.6901,2.69,2.6899,0,0,0,0,0,0,2.7258,2.7249,2.7165,2.7201,2.719,2.716,2.7139,2.7135,2.712,2.7087,2.7081,2.7108,2.7054,2.7046,2.7007,2.6992,2.7013,2.7009,2.6902,2.6901,2.69,2.6901,0,0,0,0,0,0,2.7262,2.725,2.7236,2.7201,2.7188,2.7133,2.7139,2.7133,2.7114,2.7114,2.7076,2.7071,2.7054,2.7012,2.7003,2.6987,2.7007,2.6904,2.6902,2.69,2.6902,2.69,2.6898,0,0,0,0,0,2.7266,2.7239,2.7236,2.7226,2.7171,2.7132,2.7125,2.7107,2.7113,2.7099,2.7077,2.7072,2.6995,2.7008,2.6998,2.6981,2.6904,2.6902,2.69,2.6903,2.6901,2.6898,0,0,0,0,0,0,2.7273,2.7234,2.723,2.7191,2.7165,2.713,2.7112,2.7105,2.7076,2.7077,2.7056,2.7047,2.7009,2.6991,2.7007,2.6942,2.695,2.6946,2.6956,2.6953,2.6951,2.6955,2.7004,0,0,0,0,0,2.727,2.7243,2.721,2.7179,2.7167,2.7141,2.7124,2.7113,2.7085,2.7073,2.7049,2.7021,2.699,2.6971,2.6941,2.69,2.6891,2.6883,2.6881,2.6879,2.6876,2.6852,2.6847,2.6892,2.6892,2.6892,0,0,2.7264,2.724,2.7224,2.718,2.7159,2.713,2.7132,2.7102,2.708,2.7068,2.703,2.7011,2.6979,2.6938,2.6919,2.6922,2.6861,2.6877,2.6876,2.6873,2.6849,2.6845,2.6841,2.6891,2.6891,2.6891,0,0,2.7238,2.7217,2.7189,2.7167,2.7135,2.7118,2.7111,2.7077,2.7064,2.7026,2.7016,2.6989,2.6937,2.6914,2.6895,2.686,2.6853,2.6851,2.6839,2.6816,2.6812,2.6809,2.6795,2.6791,2.6847,2.6847,2.6847,0,2.7234,2.7192,2.7175,2.7145,2.7125,2.7114,2.7084,2.7064,2.7023,2.7009,2.7013,2.6947,2.6925,2.6878,2.687,2.6855,2.6846,2.6854,2.6814,2.6811,2.6808,2.6794,2.6789,2.6847,2.6847,2.6847,2.6847,0,2.7188,2.7158,2.7139,2.7101,2.7079,2.7049,2.7027,2.7007,2.6997,2.698,2.694,2.6912,2.6876,2.6865,2.6855,2.6816,2.6819,2.6819,2.6826,2.6803,2.679,2.6785,2.6847,2.6847,2.6847,2.6847,0,0,2.7165,2.7117,2.711,2.7092,2.7055,2.7031,2.7001,2.6966,2.6949,2.6921,2.6894,2.685,2.685,2.6828,2.6816,2.6796,2.6768,2.6798,2.6797,2.6792,2.6722,2.6722,2.6716,2.6764,2.6763,2.6762,2.6725,0,2.7134,2.7079,2.7063,2.7017,2.6988,2.6977,2.695,2.6924,2.6906,2.6879,2.686,2.6829,2.6831,2.6818,2.6798,2.6776,2.6753,2.6778,2.6737,2.6736,2.6745,2.671,2.6709,2.6676,2.672,2.6719,2.6718,0,2.709,2.7062,2.7013,2.6979,2.6966,2.6943,2.6909,2.6883,2.6853,2.6842,2.6818,2.6807,2.6773,2.6783,2.6735,2.6752,2.6735,2.6721,2.6719,2.6714,2.6725,2.6702,2.6665,2.6659,2.671,2.6711,2.6711,0,2.7077,2.7027,2.6991,2.6976,2.6935,2.6918,2.6901,2.6871,2.6851,2.6821,2.6808,2.6774,2.6756,2.673,2.671,2.6719,2.6663,2.6671,2.6652,2.6652,2.664,2.6641,2.6598,2.663,2.663,2.6631,2.6631,0,2.7044,2.7014,2.6984,2.6962,2.6928,2.6908,2.6875,2.6856,2.683,2.6803,2.6791,2.6766,2.6742,2.6713,2.6697,2.6659,2.6651,2.664,2.6636,2.6641,2.6642,2.6628,2.6629,2.6629,2.6629,2.663,2.663,0,2.7023,2.7002,2.6962,2.6927,2.6917,2.6893,2.6863,2.684,2.6822,2.6788,2.6779,2.6751,2.6716,2.6694,2.665,2.6639,2.6598,2.6595,2.6608,2.6606,2.6587,2.6589,2.6533,2.6524,2.6564,2.6563,2.6563,0,2.7003,2.698,2.6942,2.6923,2.6905,2.6876,2.6855,2.6835,2.6814,2.6777,2.6758,2.6723,2.6694,2.6639,2.6614,2.658,2.6575,2.6558,2.657,2.6575,2.6574,2.6575,2.6572,2.6556,2.6555,2.6555,2.6555,0,2.6969,2.6959,2.693,2.6897,2.6873,2.6846,2.6819,2.6804,2.6779,2.6756,2.672,2.6698,2.6653,2.6617,2.6581,2.6562,2.6553,2.6551,2.6545,2.6549,2.6557,2.6551,2.6602,2.6553,2.6553,2.6553,2.6553,2.6553,2.6947,2.6925,2.6895,2.6863,2.684,2.6815,2.6792,2.6771,2.6741,2.6703,2.6693,2.6656,2.6625,2.6575,2.6555,2.6525,2.6527,2.6518,2.6515,2.6513,2.6512,2.6563,2.6519,2.6519,2.6519,2.6519,2.6519,0,2.6911,2.6891,2.6861,2.6824,2.6798,2.6794,2.6763,2.6742,2.6709,2.6682,2.6653,2.6612,2.6577,2.655,2.6514,2.6495,2.649,2.6486,2.6487,2.6482,2.6513,2.6522,2.6491,2.6491,2.6491,2.6491,2.6491,2.6491,2.6889,2.6852,2.6839,2.679,2.677,2.6734,2.6717,2.6693,2.667,2.6625,2.6597,2.6579,2.655,2.6513,2.648,2.6473,2.646,2.6456,2.6448,2.6477,2.648,2.6483,2.6491,2.6454,2.6454,2.6419,2.6419,2.6419]}]]